Content
SEND FEEDBACK

Daily
Averages
Monthly
Summary
Greece

THESSALONIKI, GREECE


Home > Europe > Greece
Elevation: 13 feet     Latitude: 40 13N     Longitude: 022 58E

WEATHER
 
SELECT A DAY
Number of Records: 94,447;   Date Range: 7/3/96 - 8/10/14
 
SHARE

PRINT THIS DATA

[ ← Previous Day ]
WEATHER ALMANAC - FEBRUARY 17, 2013
[ Next Day → ]
[ °C ]   °F
Weather ElementAverageHighLow
Temperature44.9 °F50 °F (12:20 pm)37.4 °F (10:50 pm)
Dewpoint35.6 °F39.2 °F (12:50 am)32 °F (5:50 am)
Humidity69.9 %87 % (9:20 pm)48 % (2:00 pm)
Barometer30.09 in30.12 in (9:50 am)30.06 in (4:50 am)
Wind Speed6.2 mph11.5 mph (5:50 am)
Weather ElementAverage
Visibility6.2 mi
Wind DirectionSSE (143.8 °)

Weather ElementTotal
Precipitation---
Heating Degree Days21.3 (Base 65)
Averaged from 48 records on February 17, 2013
WEATHER CONDITIONS BREAKOUT
WIND DIRECTION BREAKOUT
WEATHER BY HOUR - FEBRUARY 17, 2013
[ °C ]   °F
Local TimeTemperatureDewpointHumidityBarometerVisibilityWind DirectionWind SpeedGust SpeedPrecipitationEventsConditions
12:50 AM44.6 °F39.2 °F81 %30.09 in6.2 miVariable3.5 mphDrizzle
1:20 AM44.6 °F39.2 °F81 %30.09 in6.2 miSSE (150°)4.6 mphOvercast
1:50 AM44.6 °F37.4 °F76 %30.09 in6.2 miESE (120°)5.8 mphOvercast
2:00 AM45.0 °F38.0 °F69 %30.11 in6.0 miESE (120°)5.8 mphPartly Cloudy
2:20 AM44.6 °F39.2 °F81 %30.09 in6.2 miVariable3.5 mphOvercast
2:50 AM44.6 °F39.2 °F81 %30.09 in6.2 miVariable3.5 mphOvercast
3:20 AM44.6 °F39.2 °F81 %30.09 in6.2 miSE (130°)5.8 mphOvercast
4:50 AM44.6 °F37.4 °F76 %30.06 in6.2 miSE (130°)8.1 mphOvercast
5:20 AM44.6 °F37.4 °F76 %30.06 in6.2 miESE (110°)5.8 mphOvercast
5:50 AM44.6 °F32.0 °F61 %30.06 in6.2 miSE (130°)11.5 mphOvercast
6:20 AM42.8 °F32.0 °F66 %30.06 in6.2 miESE (110°)6.9 mphOvercast
6:50 AM42.8 °F32.0 °F66 %30.09 in6.2 miESE (120°)9.2 mphOvercast
7:20 AM42.8 °F32.0 °F66 %30.09 in6.2 miESE (120°)8.1 mphOvercast
7:50 AM42.8 °F32.0 °F66 %30.09 in6.2 miESE (120°)8.1 mphOvercast
8:00 AM44.0 °F32.0 °F52 %30.10 in6.0 miESE (120°)8.1 mphOvercast
8:20 AM44.6 °F32.0 °F61 %30.09 in6.2 miESE (120°)6.9 mphOvercast
8:50 AM44.6 °F33.8 °F66 %30.09 in6.2 miESE (120°)6.9 mphOvercast
9:20 AM46.4 °F35.6 °F66 %30.09 in6.2 miVariable3.5 mphOvercast
9:50 AM46.4 °F32.0 °F57 %30.12 in6.2 miEast (100°)9.2 mphMostly Cloudy
10:20 AM48.2 °F33.8 °F58 %30.12 in6.2 miESE (120°)5.8 mphMostly Cloudy
10:50 AM46.4 °F33.8 °F62 %30.12 in6.2 miNNW (340°)9.2 mphMostly Cloudy
11:20 AM48.2 °F35.6 °F62 %30.12 in6.2 miNNW (340°)6.9 mphMostly Cloudy
11:50 AM48.2 °F33.8 °F58 %30.12 in6.2 miNW (310°)5.8 mphMostly Cloudy
12:20 PM50.0 °F37.4 °F62 %30.12 in6.2 miNNW (340°)8.1 mphMostly Cloudy
12:50 PM50.0 °F35.6 °F58 %30.09 in6.2 miWNW (290°)8.1 mphMostly Cloudy
1:20 PM50.0 °F35.6 °F58 %30.09 in6.2 miWest (280°)6.9 mphMostly Cloudy
1:50 PM48.2 °F35.6 °F62 %30.09 in6.2 miWest (280°)9.2 mphMostly Cloudy
2:00 PM49.0 °F35.0 °F48 %30.10 in6.0 miWest (280°)9.2 mphPartly Cloudy
2:20 PM48.2 °F39.2 °F71 %30.09 in6.2 miWest (280°)9.2 mphMostly Cloudy
2:50 PM48.2 °F37.4 °F66 %30.06 in6.2 miWNW (290°)9.2 mphMostly Cloudy
3:20 PM48.2 °F37.4 °F66 %30.06 in6.2 miWNW (290°)9.2 mphMostly Cloudy
3:50 PM48.2 °F37.4 °F66 %30.06 in6.2 miWest (280°)9.2 mphMostly Cloudy
4:20 PM48.2 °F37.4 °F66 %30.06 in6.2 miWest (280°)9.2 mphMostly Cloudy
5:20 PM48.2 °F37.4 °F66 %30.09 in6.2 miWSW (250°)5.8 mphMostly Cloudy
5:50 PM48.2 °F37.4 °F66 %30.09 in6.2 miVariable3.5 mphMostly Cloudy
6:20 PM46.4 °F37.4 °F71 %30.09 in6.2 miVariable3.5 mphMostly Cloudy
6:50 PM46.4 °F35.6 °F66 %30.09 in6.2 miVariable3.5 mphMostly Cloudy
7:20 PM46.4 °F35.6 °F66 %30.09 in6.2 miVariable3.5 mphMostly Cloudy
7:50 PM42.8 °F35.6 °F76 %30.09 in6.2 miCalmMostly Cloudy
8:00 PM42.0 °F36.0 °F72 %30.12 in6.0 miCalmPartly Cloudy
8:20 PM41.0 °F35.6 °F81 %30.09 in6.2 miVariable3.5 mphMostly Cloudy
8:50 PM41.0 °F35.6 °F81 %30.09 in6.2 miVariable3.5 mphMostly Cloudy
9:20 PM39.2 °F35.6 °F87 %30.09 in6.2 miSE (130°)4.6 mphMostly Cloudy
9:50 PM39.2 °F35.6 °F87 %30.09 in6.2 miESE (110°)4.6 mphMostly Cloudy
10:20 PM39.2 °F33.8 °F81 %30.09 in6.2 miESE (120°)4.6 mphMostly Cloudy
10:50 PM37.4 °F33.8 °F87 %30.12 in6.2 miEast (100°)5.8 mphScattered Clouds
11:20 PM37.4 °F33.8 °F87 %30.12 in6.2 miESE (110°)5.8 mphMostly Cloudy
11:50 PM37.4 °F33.8 °F87 %30.12 in6.2 miESE (120°)4.6 mphMostly Cloudy
Hourly data recorded from LGTS, located miles away from Thessaloniki, Greece







STORIES FROM OUR PARTNERS